sat.trackr.live / text

‹ back to catalog

STARLINK-2143

NORAD 47733 · 2021-017M

PAYLOAD ACTIVE UNKNOWN

§ Identity

Operator
Country
US
Launch date
2021-03-04
Launch site
AFETR
Launch vehicle
Mass (kg)
RCS (m²)

Purposes: comms

External: N2YO · Heavens-Above · Gunter

§ Orbital elements

Epoch: 2026-05-25T04:36:34.601760Z

Period
94.01 min
Inclination
53.1565°
Eccentricity
0.0002499
Mean motion
15.31704415 rev/d
Perigee alt
469.0 km
Apogee alt
472.4 km
Semi-major
6,848.9 km
B*
6.0012e-5
RAAN
220.8752°
Arg perigee
86.2190°
Mean anomaly
273.9097°
Rev number
28,943

§ Raw data

STARLINK-21431 47733U 21017M   26145.19206715  .00001497  00000+0  60012-4 0  99972 47733  53.1565 220.8752 0002499  86.2190 273.9097 15.31704415289431

JSON: /api/v1/satellites/47733 · /tle

For live sub-satellite position, see the globe view (requires WebGL).

§ Visibility from observer

Set your observer location to see the next 7 days of passes ≥ 10°. The values pass through the URL so the page stays shareable.

No JS? Fill the form by hand. The geolocation button needs JavaScript.